Probability
29 48 68 65 68 68 68 65 71 61 68 68 68 81 84 81 77 71 71 68 71 65 58 58 58 61 55 52 65 65 65 65 65 58 58 45 45 35 35 29 35 29 48
29 55 74 71 68 68 68 71 68 65 68 68 71 81 84 81 81 74 68 68 68 71 58 58 58 61 55 55 55 68 65 61 61 65 55 45 39 42 29 26 29 39 48
32 52 68 71 74 71 71 71 68 65 68 71 71 77 77 84 81 77 68 68 71 68 58 58 58 55 52 52 55 58 58 58 48 48 55 32 29 42 32 26 29 42 39
32 52 58 71 71 71 68 65 68 65 68 68 71 81 81 77 74 71 71 68 65 68 65 55 52 48 58 58 52 52 52 58 39 48 32 26 26 35 42 32 32 42 42
32 52 74 71 74 74 71 65 68 68 68 68 71 74 71 77 71 74 71 68 68 61 52 55 55 52 48 52 52 48 48 39 39 32 26 29 39 48 52 42 35 32 35
29 42 65 74 71 77 77 74 68 71 65 65 65 68 68 65 68 68 68 65 68 61 52 52 58 55 55 52 52 45 42 35 32 19 23 26 32 52 52 42 39 35 35
29 42 55 71 77 81 74 71 65 65 65 68 61 65 68 68 68 68 65 61 65 61 48 48 55 61 48 45 45 45 39 29 23 10 10 16 35 48 45 52 42 42 32
39 45 61 74 74 77 65 71 65 58 68 68 61 61 68 71 65 65 68 65 55 52 45 45 45 42 42 45 52 42 32 29 23 10 10 19 45 45 39 45 45 52 35
45 48 52 58 65 65 68 71 65 65 74 71 61 61 61 58 58 61 58 58 52 55 55 45 42 39 39 39 45 26 23 26 23 19 6 19 29 32 39 45 45 45 39
52 52 55 58 52 52 61 61 58 61 68 65 58 58 55 55 55 52 55 52 58 52 48 45 42 35 35 35 39 26 16 23 19 26 29 23 29 26 29 39 35 35 26
52 52 48 58 55 48 45 52 52 58 68 58 58 58 58 45 39 45 48 52 55 52 52 48 45 35 32 29 29 29 23 29 23 32 39 35 32 26 26 32 29 32 29
45 48 52 58 52 48 45 45 48 45 58 58 61 55 61 58 52 39 48 55 48 45 42 42 32 39 23 32 32 32 19 23 35 35 32 39 32 26 29 32 32 29 32
45 45 45 45 48 48 52 45 48 48 55 65 58 58 61 55 48 45 48 48 55 42 32 35 32 23 26 35 39 26 19 23 39 26 32 39 32 29 29 23 26 35 29
42 48 45 55 55 42 48 52 55 55 58 55 58 55 58 58 55 55 55 48 48 45 42 39 29 19 23 29 29 26 16 26 19 29 42 39 35 29 26 19 23 29 29
45 55 52 55 61 61 58 52 48 55 48 48 48 42 52 55 48 39 48 52 42 39 42 32 23 23 23 26 23 16 26 19 23 26 32 42 32 29 23 16 16 23 26
45 52 48 52 61 65 65 61 52 42 55 39 42 42 45 45 48 42 42 39 39 39 32 26 26 32 26 29 26 26 19 19 23 26 29 35 26 23 23 23 19 19 26
55 52 58 55 61 65 55 39 35 39 29 48 45 45 48 45 52 45 45 39 35 35 29 26 26 35 39 29 23 23 23 26 29 23 29 32 26 23 29 35 29 29 29
45 65 58 42 52 65 58 58 42 39 39 42 48 52 45 45 48 52 45 35 42 39 35 35 29 23 23 26 19 19 16 26 29 26 23 32 32 26 32 35 32 32 32
52 65 61 58 52 55 58 58 48 45 42 45 45 45 55 52 48 42 39 42 45 35 32 26 26 26 26 26 23 26 26 23 26 19 23 23 32 29 29 29 32 32 35
55 65 68 65 61 55 58 58 58 52 42 45 55 55 48 45 35 32 39 52 39 35 32 35 35 39 29 29 13 13 26 26 23 19 23 26 29 32 29 29 26 29 29
58 58 68 68 61 55 55 58 55 48 45 45 48 48 45 42 45 45 23 42 39 39 35 32 35 32 32 26 19 16 16 23 26 26 23 26 19 19 26 26 32 29 26
61 65 65 65 65 68 61 61 61 61 48 48 45 48 42 39 42 35 42 35 29 45 39 39 35 29 26 32 19 16 13 13 29 16 19 19 19 26 19 23 26 29 23
52 58 55 58 61 65 61 52 52 58 48 42 42 45 48 45 42 42 35 35 35 32 35 42 39 35 35 29 23 13 13 16 23 13 16 16 16 26 26 23 23 19 16
52 48 52 61 61 65 61 58 48 52 52 48 48 48 48 48 39 35 39 39 39 35 39 35 35 35 32 32 23 23 19 19 13 10 13 19 19 23 26 16 19 23 23
52 45 48 55 58 61 61 58 61 52 52 45 48 48 48 45 42 42 45 39 39 39 42 39 35 39 29 26 26 19 19 26 13 19 6 16 19 19 23 26 23 19 26
52 48 45 58 61 58 58 55 55 58 55 52 48 45 45 45 42 42 39 45 39 39 42 39 39 32 29 29 23 16 19 19 23 16 16 19 13 16 16 26 26 23 16
Height
5889 5887 5886 5885 5883 5882 5882 5881 5880 5879 5879 5879 5878 5878 5878 5878 5878 5878 5878 5877 5877 5877 5877 5876 5876 5876 5876 5877 5877 5877 5878 5879 5879 5880 5880 5880 5881 5881 5881 5881 5881 5882 5882
5889 5887 5886 5885 5884 5883 5882 5881 5880 5880 5879 5879 5878 5878 5878 5878 5878 5877 5877 5877 5877 5877 5877 5876 5876 5876 5876 5876 5877 5877 5878 5879 5879 5879 5880 5880 5881 5881 5881 5881 5882 5882 5882
5889 5887 5886 5885 5884 5883 5882 5881 5880 5880 5879 5879 5878 5878 5878 5878 5877 5877 5877 5877 5877 5876 5876 5876 5876 5877 5877 5876 5877 5877 5878 5878 5879 5879 5880 5880 5881 5881 5881 5881 5882 5882 5882
5889 5888 5886 5885 5884 5883 5882 5881 5881 5880 5880 5879 5878 5878 5878 5878 5877 5877 5877 5876 5876 5876 5876 5876 5876 5876 5876 5876 5877 5877 5878 5879 5879 5879 5880 5880 5880 5880 5881 5881 5881 5882 5882
5889 5888 5886 5885 5884 5883 5882 5881 5881 5880 5880 5879 5879 5878 5878 5877 5877 5877 5876 5876 5876 5876 5876 5876 5876 5876 5876 5876 5876 5877 5878 5878 5878 5879 5879 5880 5880 5880 5880 5881 5881 5881 5881
5889 5888 5887 5886 5885 5884 5882 5881 5881 5880 5880 5879 5879 5878 5878 5877 5877 5876 5876 5876 5876 5876 5876 5876 5876 5876 5875 5876 5876 5877 5877 5878 5878 5878 5879 5879 5880 5880 5880 5880 5881 5881 5881
5889 5888 5887 5886 5885 5884 5882 5881 5881 5880 5879 5879 5878 5877 5877 5877 5876 5876 5876 5875 5875 5875 5875 5875 5875 5875 5875 5875 5876 5876 5877 5878 5878 5878 5878 5879 5879 5880 5880 5880 5880 5880 5880
5889 5888 5886 5886 5885 5884 5883 5882 5881 5880 5879 5878 5878 5877 5877 5876 5876 5875 5875 5875 5875 5875 5875 5875 5875 5875 5875 5875 5875 5876 5876 5877 5877 5877 5877 5878 5878 5879 5879 5879 5879 5880 5880
5888 5887 5886 5885 5884 5883 5882 5881 5881 5880 5879 5878 5877 5876 5876 5875 5875 5874 5874 5874 5874 5874 5874 5874 5874 5874 5874 5874 5875 5875 5876 5876 5876 5876 5876 5877 5877 5878 5878 5878 5878 5879 5879
5888 5886 5885 5884 5883 5882 5881 5881 5880 5879 5878 5877 5876 5876 5875 5875 5874 5874 5874 5873 5873 5873 5873 5873 5872 5873 5873 5874 5874 5875 5875 5875 5875 5875 5875 5876 5876 5877 5877 5877 5877 5878 5878
5887 5885 5884 5883 5882 5881 5880 5880 5879 5878 5877 5876 5875 5875 5874 5874 5874 5873 5873 5873 5872 5872 5872 5872 5872 5872 5872 5873 5873 5873 5874 5874 5874 5874 5875 5875 5876 5876 5876 5876 5876 5876 5876
5885 5884 5883 5882 5881 5880 5879 5878 5878 5877 5876 5875 5875 5874 5873 5873 5873 5872 5872 5872 5871 5871 5871 5871 5871 5871 5871 5872 5872 5872 5873 5873 5873 5874 5874 5875 5875 5875 5875 5875 5875 5875 5875
5884 5883 5882 5881 5880 5879 5878 5877 5877 5876 5875 5874 5874 5873 5872 5872 5870 5871 5871 5871 5871 5870 5870 5870 5870 5870 5870 5871 5871 5872 5872 5872 5872 5873 5873 5873 5874 5874 5874 5874 5874 5874 5874
5883 5881 5880 5879 5878 5877 5876 5876 5875 5874 5874 5873 5872 5872 5871 5870 5870 5869 5870 5870 5870 5870 5869 5869 5869 5869 5870 5870 5871 5871 5871 5871 5871 5872 5872 5872 5872 5873 5873 5873 5873 5873 5872
5881 5879 5878 5877 5877 5876 5875 5874 5873 5873 5872 5871 5871 5870 5870 5869 5869 5868 5868 5869 5868 5868 5868 5868 5868 5868 5869 5869 5870 5870 5870 5870 5870 5871 5871 5871 5871 5871 5871 5871 5871 5871 5871
5878 5877 5876 5875 5874 5874 5873 5872 5871 5871 5870 5870 5869 5869 5868 5868 5868 5867 5867 5868 5867 5867 5867 5867 5867 5867 5868 5868 5868 5868 5869 5869 5869 5869 5869 5869 5869 5869 5869 5869 5869 5870 5870
5875 5874 5873 5872 5872 5871 5871 5870 5869 5869 5868 5867 5867 5867 5867 5867 5867 5866 5866 5866 5866 5866 5866 5866 5866 5866 5867 5867 5867 5867 5867 5867 5868 5868 5868 5868 5867 5868 5867 5867 5868 5868 5868
5872 5871 5870 5870 5869 5869 5868 5868 5867 5866 5865 5865 5865 5865 5865 5866 5865 5865 5865 5865 5865 5865 5865 5865 5865 5865 5865 5865 5865 5865 5866 5866 5866 5866 5866 5866 5866 5866 5865 5865 5866 5865 5865
5868 5868 5867 5866 5866 5866 5865 5865 5864 5864 5863 5863 5863 5863 5863 5864 5864 5863 5863 5863 5863 5863 5863 5863 5863 5864 5864 5864 5864 5864 5864 5864 5864 5864 5864 5864 5863 5863 5863 5863 5863 5863 5863
5864 5864 5864 5863 5863 5863 5862 5862 5861 5861 5861 5861 5861 5861 5861 5861 5861 5861 5861 5861 5861 5862 5861 5862 5862 5862 5862 5862 5862 5862 5862 5862 5862 5861 5861 5861 5861 5860 5860 5860 5860 5860 5860
5861 5861 5861 5860 5860 5859 5859 5859 5858 5858 5858 5858 5858 5859 5859 5859 5859 5859 5859 5859 5859 5859 5859 5859 5859 5860 5860 5860 5860 5860 5860 5859 5859 5859 5858 5858 5858 5858 5857 5857 5857 5857 5857
5857 5857 5857 5857 5856 5856 5856 5856 5855 5855 5855 5856 5856 5856 5856 5857 5857 5857 5857 5857 5857 5857 5857 5857 5857 5857 5857 5857 5858 5857 5857 5857 5856 5856 5855 5855 5855 5854 5854 5854 5854 5853 5853
5853 5853 5853 5852 5852 5852 5852 5852 5852 5852 5852 5853 5853 5853 5854 5854 5854 5854 5854 5854 5854 5854 5854 5854 5854 5854 5854 5854 5854 5854 5854 5854 5853 5853 5852 5852 5851 5851 5851 5851 5850 5850 5850
5848 5848 5848 5848 5848 5848 5848 5848 5848 5848 5849 5849 5850 5850 5850 5850 5850 5850 5851 5851 5851 5851 5851 5851 5851 5851 5851 5851 5850 5850 5851 5850 5850 5850 5849 5848 5848 5847 5847 5847 5847 5846 5846
5844 5844 5844 5844 5844 5844 5844 5844 5844 5844 5845 5846 5846 5846 5847 5847 5847 5847 5847 5847 5847 5847 5847 5847 5847 5848 5848 5847 5847 5847 5846 5846 5846 5846 5845 5845 5844 5844 5843 5843 5843 5843 5842
5838 5839 5839 5839 5839 5839 5839 5839 5840 5840 5841 5842 5842 5843 5843 5843 5843 5843 5844 5844 5844 5844 5844 5844 5844 5844 5844 5843 5843 5843 5843 5842 5842 5841 5841 5840 5840 5840 5839 5839 5839 5839 5838
Wind_Speed
8 8 8 8 7 6 4 4 4 4 4 4 4 4 4 5 5 5 4 4 3 3 3 3 4 3 4 5 5 5 5 4 4 4 4 4 4 4 3 3 3 3 4
7 8 8 7 6 5 4 4 3 4 4 4 4 5 4 4 5 4 4 3 3 3 4 3 3 4 4 5 5 5 5 5 4 4 4 3 4 4 3 2 2 3 3
7 7 7 7 6 5 4 4 4 4 4 4 4 4 4 4 4 4 3 3 3 2 3 3 3 4 4 4 4 5 5 5 4 4 3 3 3 3 3 2 3 3 3
7 7 6 6 6 6 5 4 4 4 4 4 4 4 3 3 3 3 3 2 2 2 2 2 3 3 4 3 3 4 4 3 3 4 3 3 3 3 3 3 3 3 3
7 7 6 6 6 6 5 5 4 4 4 4 4 3 2 2 3 2 3 2 2 2 2 2 2 3 3 4 3 3 4 4 3 3 4 4 3 3 3 3 3 3 3
6 6 5 5 5 5 5 4 4 4 3 3 3 2 2 2 2 2 2 1 2 2 2 2 2 3 3 3 3 3 3 4 4 4 4 4 4 4 3 4 4 4 3
6 6 5 5 5 5 4 4 3 3 3 2 2 2 1 1 1 1 1 1 1 2 2 2 2 2 3 3 3 3 4 4 4 5 5 5 5 4 4 4 4 3 3
6 5 4 4 4 4 4 3 3 3 2 1 1 2 1 1 1 0 0 1 1 1 2 2 2 2 3 4 4 4 5 5 4 4 4 4 5 4 4 4 4 3 3
6 5 4 4 4 4 4 3 2 2 2 2 1 1 1 0 1 0 1 1 2 2 2 3 3 3 3 4 4 4 5 5 5 5 4 4 4 4 4 4 4 4 4
7 6 5 5 5 4 4 3 2 2 2 2 2 1 1 1 1 1 2 2 2 2 3 4 4 3 3 4 4 4 4 6 5 5 5 4 4 3 4 5 5 4 5
7 6 6 6 6 5 4 4 3 3 3 2 2 2 2 2 2 2 2 3 3 3 3 3 3 4 4 4 4 5 4 5 6 5 5 4 4 4 4 5 5 5 5
6 6 7 6 6 6 5 5 4 4 4 3 3 3 3 3 3 4 3 3 3 3 3 3 3 3 3 4 4 5 5 4 5 5 5 4 4 5 5 5 5 5 5
7 7 7 8 7 6 5 5 5 5 4 4 4 4 4 4 4 5 3 4 3 3 3 3 4 4 4 4 4 4 4 5 5 4 5 5 5 5 5 5 4 4 4
9 9 8 8 8 7 6 6 6 6 5 5 5 5 4 5 4 5 5 4 4 4 4 4 4 4 5 4 4 4 4 5 5 5 5 5 5 6 6 6 5 4 4
10 10 10 9 8 7 7 7 7 7 6 6 7 6 5 5 5 5 5 5 5 4 4 4 5 5 5 5 5 5 5 5 5 5 6 6 6 6 6 7 6 6 6
11 11 10 10 9 9 8 8 8 8 8 7 8 7 6 5 6 6 6 6 5 5 4 5 5 6 5 6 6 6 5 5 5 6 7 7 7 7 8 7 7 8 8
12 12 11 11 10 9 9 9 9 9 9 9 8 7 7 7 5 5 6 5 5 5 5 5 5 5 5 6 6 7 7 7 7 8 8 8 8 9 8 9 8 9 9
13 12 12 12 11 11 10 10 10 10 9 9 9 8 7 7 6 6 6 6 6 5 5 5 5 6 6 7 7 8 8 8 9 9 9 9 9 10 10 10 11 10 10
13 12 12 12 11 11 11 11 11 11 11 10 10 9 9 8 8 8 7 7 7 6 7 6 6 7 7 8 8 8 8 9 10 10 10 11 11 11 12 12 12 13 12
14 13 13 12 12 12 12 12 12 12 11 11 10 10 10 10 9 9 9 9 9 9 8 8 8 8 8 9 9 9 10 10 10 11 12 12 13 13 13 13 13 13 13
15 14 14 14 14 13 13 13 12 12 12 11 11 11 12 12 11 11 11 11 10 10 10 9 9 9 9 10 11 11 11 12 11 12 12 13 14 14 13 13 13 13 14
16 16 16 16 15 15 14 14 13 13 13 13 13 13 13 13 12 12 12 12 11 12 12 11 10 10 11 11 11 11 12 12 12 12 13 14 14 15 14 14 14 14 15
18 18 17 17 17 16 15 14 14 14 14 14 14 14 13 13 13 13 13 13 13 13 13 13 12 11 12 13 13 13 13 14 13 14 14 15 15 14 15 15 14 15 14
18 17 17 17 17 17 17 16 16 15 16 16 15 14 14 14 15 14 14 14 14 14 14 13 13 13 13 13 14 14 14 15 15 15 16 16 15 15 15 15 15 15 15
18 18 17 17 17 18 17 17 17 16 16 17 16 16 16 16 15 15 15 15 15 15 15 15 14 14 14 14 15 15 15 16 16 17 16 16 15 15 15 15 16 16 16
18 18 18 17 17 18 18 18 18 18 18 18 17 17 17 17 16 16 16 16 16 15 16 16 16 16 16 16 16 16 16 16 15 16 16 16 17 16 16 16 16 16 17
Wind_Direction
28 26 24 23 23 25 26 32 58 80 94 96 103 107 104 98 98 91 85 83 95 100 107 111 96 123 131 129 134 146 152 160 159 163 166 167 173 177 191 173 171 175 169
24 21 21 24 26 26 29 37 60 81 87 92 100 103 102 99 97 96 93 89 104 112 109 109 110 110 124 126 141 148 149 154 156 167 175 175 183 188 179 183 188 185 182
20 16 18 22 30 34 35 47 58 73 83 90 98 104 104 100 96 98 106 109 120 122 111 116 122 126 133 134 133 149 151 159 167 170 165 177 191 197 191 188 190 194 199
14 12 16 21 30 35 37 45 55 65 78 89 98 99 100 96 96 99 106 120 138 131 124 128 129 138 148 149 141 145 152 160 168 169 172 180 199 207 205 195 194 190 198
6 6 12 22 28 29 36 51 56 64 74 84 92 89 90 91 86 91 104 112 128 126 124 138 142 163 164 165 159 149 154 166 175 176 181 188 201 206 205 200 203 198 202
357 1 10 18 26 29 32 48 56 60 65 75 79 74 72 80 81 91 113 130 137 148 147 152 156 174 179 174 170 170 173 175 173 176 183 194 196 197 204 211 218 206 210
350 355 6 11 16 21 28 41 50 50 53 66 62 60 73 80 82 74 102 159 139 158 164 162 176 178 193 195 182 181 186 184 179 179 192 202 207 206 210 217 213 207 217
342 346 353 359 358 3 8 13 21 22 33 44 39 53 46 61 22 82 154 199 200 189 199 196 195 211 199 202 202 195 197 196 195 200 196 209 212 213 211 214 211 209 227
334 335 337 339 340 342 342 341 342 351 1 2 353 13 16 330 324 237 209 225 222 223 219 223 221 225 221 207 203 203 206 209 208 212 211 208 208 214 212 221 228 227 236
326 326 329 327 323 318 319 315 314 325 328 329 338 329 314 303 275 233 223 237 222 232 229 230 226 224 227 219 219 220 219 222 216 220 218 215 222 230 229 232 236 235 236
319 321 324 320 315 310 309 301 292 298 307 311 304 302 294 279 259 238 243 248 231 237 242 247 243 225 223 226 224 225 223 213 213 212 216 218 223 229 233 239 243 240 244
316 317 318 314 310 302 300 297 287 286 292 294 288 287 286 271 257 245 257 238 239 239 247 248 246 232 223 220 220 224 220 213 214 217 224 226 231 237 239 242 245 247 248
308 308 310 312 308 300 295 293 286 283 286 288 284 282 286 281 269 245 250 248 241 245 257 253 251 242 237 227 224 225 224 223 219 226 237 240 243 240 239 239 241 245 253
296 299 302 304 303 300 294 288 286 282 282 283 280 274 274 276 259 244 249 249 253 252 255 253 248 246 237 225 223 223 227 229 232 236 243 247 244 239 243 245 242 250 269
289 290 293 294 293 293 289 282 279 279 270 271 269 268 266 264 256 248 247 253 263 256 257 252 244 240 236 235 236 237 235 235 239 243 247 250 248 248 250 248 249 258 263
283 283 284 286 283 281 281 280 277 270 268 262 256 258 254 252 246 249 254 259 260 257 255 247 239 238 236 241 244 244 245 241 248 252 252 252 252 252 251 248 255 263 263
280 277 279 279 278 275 273 273 274 270 266 262 256 254 255 247 248 246 251 247 250 258 263 263 249 242 241 245 248 249 249 244 247 251 253 254 256 257 256 253 257 262 265
280 275 274 273 272 271 270 270 269 268 263 261 259 259 260 260 260 256 261 257 259 264 270 267 252 250 250 252 253 252 252 252 253 254 255 257 257 256 255 256 258 261 263
278 275 271 269 268 269 271 270 265 266 262 261 259 256 260 266 267 260 264 260 259 260 262 261 256 258 261 261 260 257 257 258 258 258 260 261 260 260 259 260 262 263 264
276 274 270 267 266 267 270 272 269 265 262 261 261 258 260 263 265 261 262 261 259 257 258 260 261 262 263 264 264 262 262 262 262 263 263 262 264 265 262 262 263 265 266
276 274 268 266 265 266 268 270 270 263 261 262 261 258 257 259 262 260 261 260 261 257 256 260 263 266 265 265 266 266 267 266 267 267 266 264 261 261 262 265 268 270 269
275 272 268 265 265 265 265 266 265 262 260 260 259 259 261 260 262 261 262 261 261 260 257 263 267 267 266 265 265 266 267 268 267 269 268 266 263 261 263 268 270 271 270
272 272 271 268 265 264 264 263 261 258 258 258 259 260 260 260 260 264 262 263 263 262 261 263 267 269 269 265 265 268 269 268 268 269 270 271 270 268 267 268 269 268 268
267 269 270 267 264 263 262 263 263 259 255 256 259 260 261 263 262 263 262 262 263 263 264 264 267 271 272 269 265 268 270 269 268 268 270 271 271 269 269 269 270 270 269
264 265 268 267 265 263 262 261 260 258 255 256 260 260 261 263 262 262 262 260 261 262 263 265 269 271 272 271 269 269 271 270 269 268 268 269 269 268 268 269 269 271 271
262 262 263 263 264 263 261 259 258 257 255 255 259 261 261 261 261 263 262 259 260 262 264 265 267 270 272 271 270 269 270 270 271 270 269 269 268 268 270 271 271 273 271